^^
Station Historical Data
Daily Summary for October 11, 2018 Units:  English    Metric   Both
« Previous Day
Next Day »
Daily Weekly Monthly Yearly Custom
  High: Low: Average:
Temperature: TemperatureF °F 43.3 °F 45.5 °F
Dew Point: DewpointF °F 43.3 °F 45.5 °F
Humidity: Humidity % 96 % 100 %
Wind Speed: WindSpeedMPH mph 0 mph 0 mph
Wind Gust: WindSpeedGustMPH mph - -
Wind:- - East
Pressure: PressureIn in 29.50 in -
Precipitation: 0.15 in    
Historical Graphs
 
 
Tabular Data for October 11, 2018
Time Temperature Dew Point Pressure Wind Wind Speed Wind Gust Humidity Rainfall Rate (Hourly) solar Conditions
TemperatureF °F DewpointF °F PressureIn in Calm     Humidity % HourlyPrecipIn in SoftwareType W/m2 Conditions
00:00 46 °F 44.9 °F 29.86 in Calm   3 mph 96 % 0 in WeatherDisplay:10.37 W/m2 RA
00:05 45.9 °F 44.8 °F 29.85 in Calm   1 mph 96 % 0 in WeatherDisplay:10.37 W/m2 RA
00:10 45.8 °F 45.8 °F 29.85 in ESE 1 mph 9 mph 100 % 0 in WeatherDisplay:10.37 W/m2 FEW
00:15 45.7 °F 45.7 °F 29.85 in Calm   3 mph 100 % 0 in WeatherDisplay:10.37 W/m2 FEW
00:20 45.7 °F 45.7 °F 29.85 in Calm   2 mph 100 % 0 in WeatherDisplay:10.37 W/m2 FEW
00:25 45.6 °F 44.5 °F 29.85 in Calm   3 mph 96 % 0 in WeatherDisplay:10.37 W/m2 FEW
00:30 45.5 °F 44.4 °F 29.85 in Calm   3 mph 96 % 0 in WeatherDisplay:10.37 W/m2 FEW
00:35 45.5 °F 44.4 °F 29.85 in Calm   2 mph 96 % 0 in WeatherDisplay:10.37 W/m2 FEW
00:40 45.4 °F 45.4 °F 29.85 in Calm   3 mph 100 % 0 in WeatherDisplay:10.37 W/m2 FEW
00:45 45.4 °F 45.4 °F 29.85 in Calm   3 mph 100 % 0 in WeatherDisplay:10.37 W/m2 FEW
00:50 45.3 °F 45.3 °F 29.84 in East 1 mph 8 mph 100 % 0 in WeatherDisplay:10.37 W/m2 FEW
00:55 45.2 °F 45.2 °F 29.84 in Calm   2 mph 100 % 0 in WeatherDisplay:10.37 W/m2 FEW
01:00 45.1 °F 45.1 °F 29.84 in Calm     100 % 0 in WeatherDisplay:10.37 W/m2 FEW
01:05 45.1 °F 45.1 °F 29.84 in Calm   1 mph 100 % 0 in WeatherDisplay:10.37 W/m2 FEW
01:10 45 °F 45 °F 29.84 in Calm   3 mph 100 % 0 in WeatherDisplay:10.37 W/m2 FEW
01:15 45 °F 45 °F 29.84 in Calm   5 mph 100 % 0 in WeatherDisplay:10.37 W/m2 FEW
01:20 44.9 °F 44.9 °F 29.83 in Calm   3 mph 100 % 0 in WeatherDisplay:10.37 W/m2 FEW
01:25 44.8 °F 44.8 °F 29.83 in Calm   2 mph 100 % 0 in WeatherDisplay:10.37 W/m2 FEW
01:30 44.8 °F 44.8 °F 29.83 in Calm   3 mph 100 % 0 in WeatherDisplay:10.37 W/m2 FEW
01:35 44.7 °F 44.7 °F 29.83 in Calm   4 mph 100 % 0 in WeatherDisplay:10.37 W/m2 FEW
01:40 44.6 °F 44.6 °F 29.83 in Calm   4 mph 100 % 0 in WeatherDisplay:10.37 W/m2 FEW
01:45 44.6 °F 44.6 °F 29.83 in Calm   5 mph 100 % 0 in WeatherDisplay:10.37 W/m2 FEW
01:50 44.5 °F 44.5 °F 29.83 in Calm   5 mph 100 % 0 in WeatherDisplay:10.37 W/m2 FEW
01:55 44.5 °F 44.5 °F 29.83 in Calm   3 mph 100 % 0 in WeatherDisplay:10.37 W/m2 FEW
02:00 44.4 °F 44.4 °F 29.83 in Calm   1 mph 100 % 0 in WeatherDisplay:10.37 W/m2 FEW
02:05 44.4 °F 44.4 °F 29.83 in Calm   2 mph 100 % 0 in WeatherDisplay:10.37 W/m2 FEW
02:10 44.4 °F 44.4 °F 29.82 in Calm   3 mph 100 % 0 in WeatherDisplay:10.37 W/m2 FEW
02:15 44.3 °F 44.3 °F 29.82 in Calm   5 mph 100 % 0 in WeatherDisplay:10.37 W/m2 FEW
02:20 44.3 °F 44.3 °F 29.81 in Calm   1 mph 100 % 0 in WeatherDisplay:10.37 W/m2 FEW
02:25 44.3 °F 44.3 °F 29.81 in ENE 1 mph 6 mph 100 % 0 in WeatherDisplay:10.37 W/m2 FEW
02:30 44.2 °F 44.2 °F 29.80 in Calm   6 mph 100 % 0 in WeatherDisplay:10.37 W/m2 FEW
02:35 44.2 °F 44.2 °F 29.80 in Calm   1 mph 100 % 0 in WeatherDisplay:10.37 W/m2 FEW
02:40 44.1 °F 44.1 °F 29.80 in Calm   2 mph 100 % 0 in WeatherDisplay:10.37 W/m2 FEW
02:45 44.1 °F 44.1 °F 29.79 in Calm   2 mph 100 % 0 in WeatherDisplay:10.37 W/m2 FEW
02:50 44.1 °F 44.1 °F 29.79 in East 1 mph 5 mph 100 % 0 in WeatherDisplay:10.37 W/m2 FEW
02:55 44 °F 44 °F 29.78 in Calm   2 mph 100 % 0 in WeatherDisplay:10.37 W/m2 FEW
03:00 44 °F 44 °F 29.78 in Calm   3 mph 100 % 0 in WeatherDisplay:10.37 W/m2 FEW
03:05 44 °F 44 °F 29.78 in Calm   4 mph 100 % 0 in WeatherDisplay:10.37 W/m2 FEW
03:10 44 °F 44 °F 29.78 in Calm   3 mph 100 % 0 in WeatherDisplay:10.37 W/m2 FEW
03:15 43.9 °F 43.9 °F 29.78 in Calm   2 mph 100 % 0 in WeatherDisplay:10.37 W/m2 FEW
03:20 43.9 °F 43.9 °F 29.77 in Calm   2 mph 100 % 0 in WeatherDisplay:10.37 W/m2 FEW
03:25 43.9 °F 43.9 °F 29.77 in Calm   3 mph 100 % 0 in WeatherDisplay:10.37 W/m2 FEW
03:30 43.9 °F 43.9 °F 29.77 in Calm   2 mph 100 % 0 in WeatherDisplay:10.37 W/m2 FEW
03:35 43.8 °F 43.8 °F 29.76 in Calm   3 mph 100 % 0 in WeatherDisplay:10.37 W/m2 FEW
03:40 43.8 °F 43.8 °F 29.76 in Calm   3 mph 100 % 0 in WeatherDisplay:10.37 W/m2 FEW
03:45 43.7 °F 43.7 °F 29.76 in Calm   1 mph 100 % 0 in WeatherDisplay:10.37 W/m2 FEW
03:50 43.7 °F 43.7 °F 29.75 in Calm   3 mph 100 % 0 in WeatherDisplay:10.37 W/m2 FEW
03:55 43.7 °F 43.7 °F 29.75 in Calm   2 mph 100 % 0 in WeatherDisplay:10.37 W/m2 FEW
04:00 43.7 °F 43.7 °F 29.75 in Calm   2 mph 100 % 0 in WeatherDisplay:10.37 W/m2 FEW
04:05 43.7 °F 43.7 °F 29.75 in Calm     100 % 0 in WeatherDisplay:10.37 W/m2 FEW
04:10 43.7 °F 43.7 °F 29.75 in Calm   2 mph 100 % 0 in WeatherDisplay:10.37 W/m2 FEW
04:15 43.7 °F 43.7 °F 29.75 in Calm     100 % 0 in WeatherDisplay:10.37 W/m2 FEW
04:20 43.7 °F 43.7 °F 29.74 in Calm     100 % 0 in WeatherDisplay:10.37 W/m2 FEW
04:25 43.7 °F 43.7 °F 29.75 in Calm   4 mph 100 % 0 in WeatherDisplay:10.37 W/m2 FEW
04:30 43.7 °F 43.7 °F 29.74 in Calm   6 mph 100 % 0 in WeatherDisplay:10.37 W/m2 FEW
04:35 43.6 °F 43.6 °F 29.74 in Calm   5 mph 100 % 0 in WeatherDisplay:10.37 W/m2 FEW
04:40 43.6 °F 43.6 °F 29.73 in Calm   1 mph 100 % 0 in WeatherDisplay:10.37 W/m2 FEW
04:45 43.6 °F 43.6 °F 29.73 in Calm   3 mph 100 % 0 in WeatherDisplay:10.37 W/m2 FEW
04:50 43.6 °F 43.6 °F 29.73 in Calm   7 mph 100 % 0 in WeatherDisplay:10.37 W/m2 FEW
04:55 43.6 °F 43.6 °F 29.73 in Calm   4 mph 100 % 0 in WeatherDisplay:10.37 W/m2 FEW
05:05 43.7 °F 43.7 °F 29.72 in Calm   2 mph 100 % 0.01 in WeatherDisplay:10.37 W/m2 RA
05:10 43.7 °F 43.7 °F 29.73 in Calm   4 mph 100 % 0 in WeatherDisplay:10.37 W/m2 RA
05:15 43.7 °F 43.7 °F 29.72 in Calm   3 mph 100 % 0.01 in WeatherDisplay:10.37 W/m2 RA
05:20 43.7 °F 43.7 °F 29.72 in Calm   1 mph 100 % 0.02 in WeatherDisplay:10.37 W/m2 RA
05:25 43.7 °F 43.7 °F 29.72 in Calm   1 mph 100 % 0.01 in WeatherDisplay:10.37 W/m2 RA
05:30 43.7 °F 43.7 °F 29.72 in Calm   2 mph 100 % 0.01 in WeatherDisplay:10.37 W/m2 RA
05:35 43.7 °F 43.7 °F 29.72 in Calm     100 % 0.01 in WeatherDisplay:10.37 W/m2 RA
05:40 43.6 °F 43.6 °F 29.71 in Calm   2 mph 100 % 0 in WeatherDisplay:10.37 W/m2 RA
05:45 43.7 °F 43.7 °F 29.71 in Calm   1 mph 100 % 0 in WeatherDisplay:10.37 W/m2 FEW
05:50 43.6 °F 43.6 °F 29.71 in Calm   3 mph 100 % 0 in WeatherDisplay:10.37 W/m2 FEW
05:55 43.6 °F 43.6 °F 29.70 in Calm   2 mph 100 % 0.01 in WeatherDisplay:10.37 W/m2 RA
06:00 43.6 °F 43.6 °F 29.70 in Calm   3 mph 100 % 0 in WeatherDisplay:10.37 W/m2 RA
06:05 43.6 °F 43.6 °F 29.70 in Calm   1 mph 100 % 0 in WeatherDisplay:10.37 W/m2 FEW
06:10 43.6 °F 43.6 °F 29.70 in Calm   1 mph 100 % 0.01 in WeatherDisplay:10.37 W/m2 RA
06:15 43.6 °F 43.6 °F 29.70 in Calm   1 mph 100 % 0 in WeatherDisplay:10.37 W/m2 RA
06:20 43.6 °F 43.6 °F 29.70 in Calm   1 mph 100 % 0 in WeatherDisplay:10.37 W/m2 FEW
06:25 43.6 °F 43.6 °F 29.69 in Calm   3 mph 100 % 0.01 in WeatherDisplay:10.37 W/m2 RA
06:30 43.6 °F 43.6 °F 29.69 in Calm   2 mph 100 % 0 in WeatherDisplay:10.37 W/m2 RA
06:35 43.6 °F 43.6 °F 29.69 in Calm   2 mph 100 % 0 in WeatherDisplay:10.37 W/m2 FEW
06:40 43.6 °F 43.6 °F 29.69 in Calm   3 mph 100 % 0 in WeatherDisplay:10.37 W/m2 FEW
06:45 43.6 °F 43.6 °F 29.68 in Calm   2 mph 100 % 0 in WeatherDisplay:10.37 W/m2 FEW
06:50 43.5 °F 43.5 °F 29.68 in Calm   2 mph 100 % 0 in WeatherDisplay:10.37 W/m2 FEW
06:55 43.5 °F 43.5 °F 29.68 in Calm   3 mph 100 % 0 in WeatherDisplay:10.37 W/m2 FEW
07:00 43.5 °F 43.5 °F 29.68 in Calm   5 mph 100 % 0.01 in WeatherDisplay:10.37 W/m2 RA
07:05 43.5 °F 43.5 °F 29.67 in Calm   2 mph 100 % 0 in WeatherDisplay:10.37 W/m2 RA
07:10 43.5 °F 43.5 °F 29.67 in Calm   2 mph 100 % 0 in WeatherDisplay:10.37 W/m2 FEW
07:15 43.4 °F 43.4 °F 29.67 in Calm   1 mph 100 % 0 in WeatherDisplay:10.37 W/m2 FEW
07:20 43.4 °F 43.4 °F 29.67 in Calm   1 mph 100 % 0.01 in WeatherDisplay:10.37 W/m2 RA
07:25 43.4 °F 43.4 °F 29.67 in Calm   1 mph 100 % 0 in WeatherDisplay:10.37 W/m2 RA
07:30 43.4 °F 43.4 °F 29.67 in Calm     100 % 0 in WeatherDisplay:10.37 W/m2 FEW
07:35 43.4 °F 43.4 °F 29.67 in Calm   3 mph 100 % 0 in WeatherDisplay:10.37 W/m2 FEW
07:40 43.3 °F 43.3 °F 29.67 in Calm   2 mph 100 % 0.01 in WeatherDisplay:10.37 W/m2 RA
07:45 43.3 °F 43.3 °F 29.66 in Calm     100 % 0 in WeatherDisplay:10.37 W/m2 RA
07:50 43.3 °F 43.3 °F 29.66 in Calm   1 mph 100 % 0 in WeatherDisplay:10.37 W/m2 FEW
07:55 43.3 °F 43.3 °F 29.66 in Calm   1 mph 100 % 0 in WeatherDisplay:10.37 W/m2 FEW
08:00 43.3 °F 43.3 °F 29.66 in Calm     100 % 0 in WeatherDisplay:10.37 W/m2 FEW
08:05 43.3 °F 43.3 °F 29.66 in Calm   3 mph 100 % 0 in WeatherDisplay:10.37 W/m2 FEW
08:10 43.3 °F 43.3 °F 29.66 in Calm   4 mph 100 % 0.01 in WeatherDisplay:10.37 W/m2 RA
08:15 43.3 °F 43.3 °F 29.66 in Calm   1 mph 100 % 0 in WeatherDisplay:10.37 W/m2 RA
08:20 43.3 °F 43.3 °F 29.66 in Calm   3 mph 100 % 0 in WeatherDisplay:10.37 W/m2 FEW
08:25 43.3 °F 43.3 °F 29.66 in Calm     100 % 0 in WeatherDisplay:10.37 W/m2 FEW
08:30 43.3 °F 43.3 °F 29.65 in Calm     100 % 0 in WeatherDisplay:10.37 W/m2 FEW
08:35 43.4 °F 43.4 °F 29.65 in Calm   1 mph 100 % 0 in WeatherDisplay:10.37 W/m2 FEW
08:40 43.4 °F 43.4 °F 29.65 in Calm   1 mph 100 % 0 in WeatherDisplay:10.37 W/m2 FEW
08:45 43.4 °F 43.4 °F 29.65 in Calm   1 mph 100 % 0 in WeatherDisplay:10.37 W/m2 FEW
08:50 43.4 °F 43.4 °F 29.65 in Calm   2 mph 100 % 0 in WeatherDisplay:10.37 W/m2 FEW
08:55 43.4 °F 43.4 °F 29.65 in Calm   2 mph 100 % 0.01 in WeatherDisplay:10.37 W/m2 RA
09:00 43.5 °F 43.5 °F 29.65 in Calm   2 mph 100 % 0 in WeatherDisplay:10.37 W/m2 RA
09:05 43.5 °F 43.5 °F 29.65 in Calm   2 mph 100 % 0 in WeatherDisplay:10.37 W/m2 FEW
09:10 43.5 °F 43.5 °F 29.64 in Calm   1 mph 100 % 0 in WeatherDisplay:10.37 W/m2 FEW
09:15 43.6 °F 43.6 °F 29.64 in Calm     100 % 0 in WeatherDisplay:10.37 W/m2 FEW
09:20 43.6 °F 43.6 °F 29.65 in Calm   1 mph 100 % 0 in WeatherDisplay:10.37 W/m2 FEW
09:25 43.6 °F 43.6 °F 29.64 in Calm   1 mph 100 % 0 in WeatherDisplay:10.37 W/m2 FEW
09:30 43.6 °F 43.6 °F 29.64 in Calm   1 mph 100 % 0 in WeatherDisplay:10.37 W/m2 FEW
09:35 43.6 °F 43.6 °F 29.64 in Calm   3 mph 100 % 0 in WeatherDisplay:10.37 W/m2 FEW
09:40 43.7 °F 43.7 °F 29.64 in Calm   1 mph 100 % 0 in WeatherDisplay:10.37 W/m2 FEW
09:45 43.7 °F 43.7 °F 29.64 in Calm   3 mph 100 % 0 in WeatherDisplay:10.37 W/m2 FEW
09:50 43.7 °F 43.7 °F 29.64 in Calm     100 % 0 in WeatherDisplay:10.37 W/m2 FEW
09:55 43.8 °F 43.8 °F 29.63 in Calm     100 % 0 in WeatherDisplay:10.37 W/m2 FEW
10:00 43.8 °F 43.8 °F 29.63 in Calm   1 mph 100 % 0 in WeatherDisplay:10.37 W/m2 FEW
10:05 43.8 °F 43.8 °F 29.63 in Calm     100 % 0.01 in WeatherDisplay:10.37 W/m2 RA
10:10 43.8 °F 43.9 °F 29.62 in Calm   2 mph 100 % 0 in WeatherDisplay:10.37 W/m2 RA
10:15 43.9 °F 43.9 °F 29.62 in Calm     100 % 0 in WeatherDisplay:10.37 W/m2 FEW
10:20 43.9 °F 43.9 °F 29.62 in Calm   1 mph 100 % 0 in WeatherDisplay:10.37 W/m2 FEW
10:25 43.9 °F 43.9 °F 29.63 in Calm     100 % 0 in WeatherDisplay:10.37 W/m2 FEW
10:30 43.9 °F 43.9 °F 29.63 in Calm     100 % 0 in WeatherDisplay:10.37 W/m2 FEW
10:35 44 °F 44 °F 29.62 in Calm     100 % 0 in WeatherDisplay:10.37 W/m2 FEW
10:40 44.1 °F 44.1 °F 29.61 in Calm   1 mph 100 % 0.01 in WeatherDisplay:10.37 W/m2 RA
10:45 44.1 °F 44.1 °F 29.61 in Calm   2 mph 100 % 0 in WeatherDisplay:10.37 W/m2 RA
10:50 44.2 °F 44.2 °F 29.61 in Calm   1 mph 100 % 0 in WeatherDisplay:10.37 W/m2 FEW
10:55 44.3 °F 44.3 °F 29.61 in Calm   1 mph 100 % 0 in WeatherDisplay:10.37 W/m2 FEW
11:00 44.4 °F 44.4 °F 29.61 in Calm     100 % 0 in WeatherDisplay:10.37 W/m2 FEW
11:05 44.4 °F 44.4 °F 29.61 in Calm     100 % 0 in WeatherDisplay:10.37 W/m2 FEW
11:10 44.5 °F 44.5 °F 29.61 in Calm   1 mph 100 % 0 in WeatherDisplay:10.37 W/m2 FEW
11:15 44.5 °F 44.5 °F 29.61 in Calm     100 % 0 in WeatherDisplay:10.37 W/m2 FEW
11:20 44.5 °F 44.5 °F 29.61 in Calm     100 % 0 in WeatherDisplay:10.37 W/m2 FEW
11:25 44.6 °F 44.6 °F 29.61 in Calm   2 mph 100 % 0 in WeatherDisplay:10.37 W/m2 FEW
11:30 44.7 °F 44.7 °F 29.61 in Calm   1 mph 100 % 0 in WeatherDisplay:10.37 W/m2 FEW
11:35 44.8 °F 44.8 °F 29.60 in Calm     100 % 0 in WeatherDisplay:10.37 W/m2 FEW
11:40 44.9 °F 44.9 °F 29.60 in Calm   3 mph 100 % 0 in WeatherDisplay:10.37 W/m2 FEW
11:45 45 °F 45 °F 29.60 in Calm     100 % 0 in WeatherDisplay:10.37 W/m2 FEW
11:50 45.1 °F 45.1 °F 29.60 in Calm     100 % 0 in WeatherDisplay:10.37 W/m2 FEW
11:55 45.2 °F 45.2 °F 29.60 in Calm   1 mph 100 % 0.01 in WeatherDisplay:10.37 W/m2 RA
12:00 45.3 °F 45.3 °F 29.60 in Calm     100 % 0 in WeatherDisplay:10.37 W/m2 RA
12:05 45.4 °F 45.4 °F 29.59 in Calm     100 % 0 in WeatherDisplay:10.37 W/m2 FEW
12:10 45.5 °F 45.5 °F 29.60 in Calm     100 % 0 in WeatherDisplay:10.37 W/m2 FEW
12:15 45.6 °F 45.6 °F 29.59 in Calm   1 mph 100 % 0 in WeatherDisplay:10.37 W/m2 FEW
12:20 45.7 °F 45.7 °F 29.59 in Calm   1 mph 100 % 0 in WeatherDisplay:10.37 W/m2 FEW
12:25 45.8 °F 45.8 °F 29.59 in Calm   2 mph 100 % 0 in WeatherDisplay:10.37 W/m2 FEW
12:30 45.8 °F 45.8 °F 29.59 in Calm   1 mph 100 % 0 in WeatherDisplay:10.37 W/m2 FEW
12:35 45.9 °F 45.9 °F 29.59 in Calm     100 % 0 in WeatherDisplay:10.37 W/m2 FEW
12:40 46 °F 46 °F 29.58 in Calm     100 % 0 in WeatherDisplay:10.37 W/m2 FEW
12:45 46.1 °F 46.1 °F 29.58 in Calm     100 % 0 in WeatherDisplay:10.37 W/m2 FEW
12:50 46.2 °F 46.2 °F 29.58 in Calm   2 mph 100 % 0 in WeatherDisplay:10.37 W/m2 FEW
12:55 46.4 °F 46.4 °F 29.58 in Calm   1 mph 100 % 0 in WeatherDisplay:10.37 W/m2 FEW
13:00 46.5 °F 46.5 °F 29.57 in Calm     100 % 0 in WeatherDisplay:10.37 W/m2 FEW
13:05 46.7 °F 46.7 °F 29.57 in Calm     100 % 0 in WeatherDisplay:10.37 W/m2 FEW
13:10 46.9 °F 46.9 °F 29.57 in Calm     100 % 0 in WeatherDisplay:10.37 W/m2 FEW
13:15 47 °F 47 °F 29.57 in Calm   1 mph 100 % 0 in WeatherDisplay:10.37 W/m2 FEW
13:20 47 °F 47 °F 29.56 in Calm   1 mph 100 % 0 in WeatherDisplay:10.37 W/m2 FEW
13:25 47 °F 47 °F 29.56 in Calm     100 % 0 in WeatherDisplay:10.37 W/m2 FEW
13:30 47 °F 47 °F 29.56 in Calm     100 % 0 in WeatherDisplay:10.37 W/m2 FEW
13:35 47 °F 47 °F 29.56 in Calm     100 % 0 in WeatherDisplay:10.37 W/m2 FEW
13:40 47.1 °F 47.1 °F 29.56 in Calm   3 mph 100 % 0 in WeatherDisplay:10.37 W/m2 FEW
13:45 47.1 °F 47.1 °F 29.56 in Calm   3 mph 100 % 0 in WeatherDisplay:10.37 W/m2 FEW
13:50 47.1 °F 47.1 °F 29.55 in Calm     100 % 0 in WeatherDisplay:10.37 W/m2 FEW
13:55 47.1 °F 47.1 °F 29.55 in Calm     100 % 0 in WeatherDisplay:10.37 W/m2 FEW
14:00 47.1 °F 47.1 °F 29.55 in Calm   2 mph 100 % 0 in WeatherDisplay:10.37 W/m2 FEW
14:05 47.1 °F 47.1 °F 29.55 in Calm   1 mph 100 % 0 in WeatherDisplay:10.37 W/m2 FEW
14:10 47.1 °F 47.1 °F 29.55 in Calm     100 % 0 in WeatherDisplay:10.37 W/m2 FEW
14:15 47.1 °F 47.1 °F 29.55 in Calm     100 % 0 in WeatherDisplay:10.37 W/m2 FEW
14:20 47.1 °F 47.1 °F 29.54 in Calm   4 mph 100 % 0 in WeatherDisplay:10.37 W/m2 FEW
14:25 47.2 °F 47.2 °F 29.54 in Calm   1 mph 100 % 0 in WeatherDisplay:10.37 W/m2 FEW
14:30 47.2 °F 47.2 °F 29.54 in Calm   2 mph 100 % 0 in WeatherDisplay:10.37 W/m2 FEW
14:35 47.3 °F 47.3 °F 29.54 in Calm   1 mph 100 % 0 in WeatherDisplay:10.37 W/m2 FEW
14:40 47.4 °F 47.4 °F 29.54 in Calm     100 % 0 in WeatherDisplay:10.37 W/m2 FEW
14:45 47.5 °F 47.5 °F 29.54 in Calm   2 mph 100 % 0 in WeatherDisplay:10.37 W/m2 FEW
14:50 47.5 °F 47.5 °F 29.54 in Calm     100 % 0 in WeatherDisplay:10.37 W/m2 FEW
14:55 47.5 °F 47.5 °F 29.54 in Calm   1 mph 100 % 0 in WeatherDisplay:10.37 W/m2 FEW
15:00 47.5 °F 47.5 °F 29.54 in Calm     100 % 0 in WeatherDisplay:10.37 W/m2 FEW
15:05 47.5 °F 47.5 °F 29.54 in Calm     100 % 0 in WeatherDisplay:10.37 W/m2 FEW
15:10 47.5 °F 47.5 °F 29.54 in Calm   2 mph 100 % 0 in WeatherDisplay:10.37 W/m2 FEW
15:15 47.5 °F 47.5 °F 29.54 in Calm   2 mph 100 % 0 in WeatherDisplay:10.37 W/m2 FEW
15:20 47.4 °F 47.5 °F 29.53 in Calm     100 % 0 in WeatherDisplay:10.37 W/m2 FEW
15:25 47.4 °F 47.4 °F 29.53 in Calm     100 % 0 in WeatherDisplay:10.37 W/m2 FEW
15:30 47.4 °F 47.4 °F 29.53 in Calm   1 mph 100 % 0 in WeatherDisplay:10.37 W/m2 FEW
15:35 47.4 °F 47.4 °F 29.53 in Calm     100 % 0 in WeatherDisplay:10.37 W/m2 FEW
15:40 47.4 °F 47.4 °F 29.53 in Calm     100 % 0 in WeatherDisplay:10.37 W/m2 FEW
15:45 47.5 °F 47.5 °F 29.53 in Calm     100 % 0 in WeatherDisplay:10.37 W/m2 FEW
15:50 47.5 °F 47.5 °F 29.53 in Calm     100 % 0 in WeatherDisplay:10.37 W/m2 FEW
15:55 47.5 °F 47.5 °F 29.53 in Calm     100 % 0 in WeatherDisplay:10.37 W/m2 FEW
16:00 47.6 °F 47.6 °F 29.53 in Calm   3 mph 100 % 0 in WeatherDisplay:10.37 W/m2 FEW
16:05 47.6 °F 47.6 °F 29.53 in Calm     100 % 0 in WeatherDisplay:10.37 W/m2 FEW
16:10 47.6 °F 47.6 °F 29.53 in Calm     100 % 0 in WeatherDisplay:10.37 W/m2 FEW
16:15 47.6 °F 47.6 °F 29.53 in Calm     100 % 0 in WeatherDisplay:10.37 W/m2 FEW
16:20 47.6 °F 47.6 °F 29.53 in Calm     100 % 0 in WeatherDisplay:10.37 W/m2 FEW
16:25 47.6 °F 47.6 °F 29.53 in Calm   1 mph 100 % 0 in WeatherDisplay:10.37 W/m2 FEW
16:30 47.7 °F 47.7 °F 29.53 in Calm     100 % 0 in WeatherDisplay:10.37 W/m2 FEW
16:35 47.7 °F 47.7 °F 29.52 in Calm     100 % 0 in WeatherDisplay:10.37 W/m2 FEW
16:40 47.7 °F 47.7 °F 29.53 in Calm     100 % 0 in WeatherDisplay:10.37 W/m2 FEW
16:45 47.7 °F 47.7 °F 29.52 in Calm     100 % 0 in WeatherDisplay:10.37 W/m2 FEW
16:50 47.8 °F 47.8 °F 29.52 in Calm     100 % 0 in WeatherDisplay:10.37 W/m2 FEW
16:55 47.8 °F 47.8 °F 29.52 in Calm     100 % 0 in WeatherDisplay:10.37 W/m2 FEW
17:00 47.8 °F 47.8 °F 29.52 in Calm     100 % 0 in WeatherDisplay:10.37 W/m2 FEW
17:05 47.8 °F 47.8 °F 29.52 in Calm     100 % 0 in WeatherDisplay:10.37 W/m2 FEW
17:10 47.8 °F 47.8 °F 29.52 in Calm     100 % 0 in WeatherDisplay:10.37 W/m2 FEW
17:15 47.8 °F 47.8 °F 29.52 in Calm   1 mph 100 % 0 in WeatherDisplay:10.37 W/m2 FEW
17:20 47.7 °F 47.7 °F 29.52 in Calm     100 % 0 in WeatherDisplay:10.37 W/m2 FEW
17:25 47.8 °F 47.8 °F 29.52 in Calm     100 % 0 in WeatherDisplay:10.37 W/m2 FEW
17:30 47.8 °F 47.8 °F 29.52 in Calm     100 % 0 in WeatherDisplay:10.37 W/m2 FEW
17:35 47.8 °F 47.8 °F 29.52 in Calm     100 % 0 in WeatherDisplay:10.37 W/m2 FEW
17:40 47.8 °F 47.8 °F 29.52 in Calm   2 mph 100 % 0 in WeatherDisplay:10.37 W/m2 FEW
17:45 47.7 °F 47.7 °F 29.52 in Calm     100 % 0 in WeatherDisplay:10.37 W/m2 FEW
17:50 47.7 °F 47.7 °F 29.52 in Calm     100 % 0 in WeatherDisplay:10.37 W/m2 FEW
17:55 47.7 °F 47.7 °F 29.52 in Calm     100 % 0 in WeatherDisplay:10.37 W/m2 FEW
18:00 47.7 °F 47.7 °F 29.52 in Calm     100 % 0 in WeatherDisplay:10.37 W/m2 FEW
18:05 47.6 °F 47.6 °F 29.52 in Calm   1 mph 100 % 0 in WeatherDisplay:10.37 W/m2 FEW
18:10 47.6 °F 47.6 °F 29.52 in Calm     100 % 0 in WeatherDisplay:10.37 W/m2 FEW
18:15 47.5 °F 47.5 °F 29.51 in Calm     100 % 0 in WeatherDisplay:10.37 W/m2 FEW
18:20 47.5 °F 47.5 °F 29.52 in Calm     100 % 0 in WeatherDisplay:10.37 W/m2 FEW
18:25 47.5 °F 47.5 °F 29.52 in Calm   1 mph 100 % 0 in WeatherDisplay:10.37 W/m2 FEW
18:30 47.5 °F 47.5 °F 29.51 in Calm   1 mph 100 % 0 in WeatherDisplay:10.37 W/m2 FEW
18:35 47.5 °F 47.5 °F 29.52 in Calm   1 mph 100 % 0 in WeatherDisplay:10.37 W/m2 FEW
18:40 47.4 °F 47.4 °F 29.52 in Calm   2 mph 100 % 0 in WeatherDisplay:10.37 W/m2 FEW
18:45 47.4 °F 47.4 °F 29.52 in Calm   1 mph 100 % 0 in WeatherDisplay:10.37 W/m2 FEW
18:50 47.3 °F 47.3 °F 29.52 in Calm     100 % 0 in WeatherDisplay:10.37 W/m2 FEW
18:55 47.3 °F 47.3 °F 29.52 in Calm     100 % 0 in WeatherDisplay:10.37 W/m2 FEW
19:00 47.3 °F 47.3 °F 29.51 in Calm     100 % 0 in WeatherDisplay:10.37 W/m2 FEW
19:05 47.3 °F 47.3 °F 29.52 in Calm     100 % 0 in WeatherDisplay:10.37 W/m2 FEW
19:10 47.3 °F 47.3 °F 29.51 in Calm     100 % 0 in WeatherDisplay:10.37 W/m2 FEW
19:15 47.3 °F 47.3 °F 29.51 in Calm     100 % 0 in WeatherDisplay:10.37 W/m2 FEW
19:20 47.3 °F 47.3 °F 29.51 in Calm   1 mph 100 % 0 in WeatherDisplay:10.37 W/m2 FEW
19:25 47.3 °F 47.3 °F 29.50 in Calm     100 % 0 in WeatherDisplay:10.37 W/m2 FEW
19:30 47.3 °F 47.3 °F 29.51 in Calm     100 % 0 in WeatherDisplay:10.37 W/m2 FEW
19:35 47.3 °F 47.3 °F 29.51 in Calm     100 % 0 in WeatherDisplay:10.37 W/m2 FEW
19:40 47.3 °F 47.3 °F 29.52 in Calm     100 % 0 in WeatherDisplay:10.37 W/m2 FEW
19:50 47.3 °F 47.3 °F 29.52 in Calm     100 % 0 in WeatherDisplay:10.37 W/m2 FEW
19:55 47.3 °F 47.3 °F 29.52 in Calm     100 % 0 in WeatherDisplay:10.37 W/m2 FEW
20:00 47.4 °F 47.4 °F 29.53 in Calm     100 % 0 in WeatherDisplay:10.37 W/m2 FEW
20:05 47.4 °F 47.4 °F 29.54 in Calm     100 % 0 in WeatherDisplay:10.37 W/m2 FEW
20:10 47.4 °F 47.4 °F 29.53 in Calm     100 % 0 in WeatherDisplay:10.37 W/m2 FEW
20:15 47.4 °F 47.4 °F 29.52 in Calm     100 % 0 in WeatherDisplay:10.37 W/m2 FEW
20:20 47.4 °F 47.4 °F 29.52 in Calm     100 % 0 in WeatherDisplay:10.37 W/m2 FEW
20:25 47.4 °F 47.4 °F 29.52 in Calm     100 % 0 in WeatherDisplay:10.37 W/m2 FEW
20:30 47.5 °F 47.5 °F 29.52 in Calm     100 % 0 in WeatherDisplay:10.37 W/m2 FEW
20:35 47.5 °F 47.5 °F 29.52 in Calm     100 % 0 in WeatherDisplay:10.37 W/m2 FEW
20:40 47.5 °F 47.5 °F 29.52 in Calm     100 % 0.01 in WeatherDisplay:10.37 W/m2 RA
20:45 47.5 °F 47.5 °F 29.53 in Calm     100 % 0 in WeatherDisplay:10.37 W/m2 RA
20:50 47.5 °F 47.5 °F 29.53 in Calm     100 % 0 in WeatherDisplay:10.37 W/m2 FEW
20:55 47.5 °F 47.5 °F 29.53 in Calm     100 % 0 in WeatherDisplay:10.37 W/m2 FEW
21:00 47.5 °F 47.5 °F 29.53 in Calm     100 % 0 in WeatherDisplay:10.37 W/m2 FEW
21:05 47.5 °F 47.5 °F 29.53 in Calm     100 % 0 in WeatherDisplay:10.37 W/m2 FEW
21:10 47.5 °F 47.5 °F 29.53 in Calm     100 % 0 in WeatherDisplay:10.37 W/m2 FEW
21:15 47.5 °F 47.5 °F 29.54 in Calm     100 % 0 in WeatherDisplay:10.37 W/m2 FEW
21:20 47.5 °F 47.5 °F 29.54 in Calm     100 % 0 in WeatherDisplay:10.37 W/m2 FEW
21:25 47.5 °F 47.5 °F 29.54 in Calm     100 % 0 in WeatherDisplay:10.37 W/m2 FEW
21:30 47.5 °F 47.5 °F 29.54 in Calm     100 % 0 in WeatherDisplay:10.37 W/m2 FEW
21:35 47.5 °F 47.5 °F 29.54 in Calm     100 % 0 in WeatherDisplay:10.37 W/m2 FEW
21:40 47.5 °F 47.5 °F 29.54 in Calm     100 % 0 in WeatherDisplay:10.37 W/m2 FEW
21:45 47.5 °F 47.5 °F 29.54 in Calm     100 % 0 in WeatherDisplay:10.37 W/m2 FEW
21:50 47.6 °F 47.6 °F 29.54 in Calm     100 % 0 in WeatherDisplay:10.37 W/m2 FEW
21:55 47.6 °F 47.6 °F 29.54 in Calm     100 % 0 in WeatherDisplay:10.37 W/m2 FEW
22:00 47.6 °F 47.6 °F 29.54 in Calm     100 % 0 in WeatherDisplay:10.37 W/m2 FEW
22:05 47.6 °F 47.6 °F 29.54 in Calm     100 % 0 in WeatherDisplay:10.37 W/m2 FEW
22:10 47.6 °F 47.6 °F 29.54 in Calm     100 % 0 in WeatherDisplay:10.37 W/m2 FEW
22:15 47.6 °F 47.6 °F 29.54 in Calm     100 % 0 in WeatherDisplay:10.37 W/m2 FEW
22:20 47.6 °F 47.6 °F 29.54 in Calm     100 % 0 in WeatherDisplay:10.37 W/m2 FEW
22:25 47.6 °F 47.6 °F 29.54 in Calm     100 % 0 in WeatherDisplay:10.37 W/m2 FEW
22:30 47.6 °F 47.6 °F 29.54 in Calm     100 % 0 in WeatherDisplay:10.37 W/m2 FEW
22:35 47.7 °F 47.7 °F 29.54 in Calm     100 % 0 in WeatherDisplay:10.37 W/m2 FEW
22:40 47.7 °F 47.7 °F 29.54 in Calm     100 % 0 in WeatherDisplay:10.37 W/m2 FEW
22:45 47.7 °F 47.7 °F 29.54 in Calm     100 % 0 in WeatherDisplay:10.37 W/m2 FEW
22:50 47.8 °F 47.8 °F 29.54 in Calm     100 % 0 in WeatherDisplay:10.37 W/m2 FEW
22:55 47.8 °F 47.8 °F 29.54 in Calm   1 mph 100 % 0 in WeatherDisplay:10.37 W/m2 FEW
23:00 47.8 °F 47.8 °F 29.54 in Calm     100 % 0 in WeatherDisplay:10.37 W/m2 FEW
23:05 47.8 °F 47.8 °F 29.54 in Calm     100 % 0 in WeatherDisplay:10.37 W/m2 FEW
23:10 47.8 °F 47.8 °F 29.54 in Calm     100 % 0 in WeatherDisplay:10.37 W/m2 FEW
23:15 47.8 °F 47.8 °F 29.54 in Calm     100 % 0 in WeatherDisplay:10.37 W/m2 FEW
23:20 47.8 °F 47.8 °F 29.54 in Calm     100 % 0 in WeatherDisplay:10.37 W/m2 FEW
23:25 47.8 °F 47.8 °F 29.54 in Calm     100 % 0 in WeatherDisplay:10.37 W/m2 FEW
23:30 47.8 °F 47.8 °F 29.54 in Calm     100 % 0 in WeatherDisplay:10.37 W/m2 FEW
23:35 47.8 °F 47.8 °F 29.54 in Calm   1 mph 100 % 0 in WeatherDisplay:10.37 W/m2 FEW
23:40 47.8 °F 47.8 °F 29.54 in Calm     100 % 0 in WeatherDisplay:10.37 W/m2 FEW
23:45 47.8 °F 47.8 °F 29.54 in Calm     100 % 0 in WeatherDisplay:10.37 W/m2 FEW
23:50 47.8 °F 47.8 °F 29.54 in Calm     100 % 0 in WeatherDisplay:10.37 W/m2 FEW
23:55 47.7 °F 47.7 °F 29.54 in Calm     100 % 0 in WeatherDisplay:10.37 W/m2 FEW
Juneau County Weather
Compliments of Weather Underground - 3 mb